Saipan, MP

11:07 PM ChST on February 09, 2016 (GMT +1000)
Saipan International

Weather History for PGSN - October, 2012

Change the Weather History Date:

Friday, October 19, 2012

  Actual Average Record
Temperature  
Mean Temperature 84 °F -  
Max Temperature 88 °F 84 °F 88 °F (2012)
Min Temperature 80 °F 75 °F 32 °F (1999)
Cooling Degree Days 19    
Growing Degree Days 34 (Base 50)    
Moisture  
Dew Point 76 °F    
Average Humidity 77    
Maximum Humidity 85    
Minimum Humidity 67    
Precipitation  
Precipitation 0.03 in - - ()
Sea Level Pressure  
Sea Level Pressure 29.94 in    
Wind  
Wind Speed 14 mph (ENE)    
Max Wind Speed 20 mph    
Max Gust Speed 26 mph    
Visibility 10 miles    
Events Rain    
Averages and records for this station are not official NWS values.
T = Trace of Precipitation, MM = Missing Value Source: NWS Daily Summary

Daily Weather History Graph

Daily Weather History Graph

Search for Another Location

Airport or City:

Trip Planner

Search our weather history database for the weather conditions in past years. The results will help you decide how hot, cold, wet, or windy it might be!

Date:

Astronomy

Oct. 19, 2012 Rise Set
Actual Time 6:09 AM ChST 5:54 PM ChST
Civil Twilight 5:47 AM ChST 6:16 PM ChST
Nautical Twilight 5:22 AM ChST 6:41 PM ChST
Astronomical Twilight 4:57 AM ChST 7:06 PM ChST
Moon 9:41 AM ChST (10/19) 9:21 PM ChST (10/19)
Length of Visible Light 12h 28m
Length of Day
11h 44m
Waxing Crescent, 18% of the Moon is Illuminated
Oct 19
Waxing Crescent
Oct 22
First Quarter
Oct 30
Full
Nov 7
Last Quarter
Nov 14
New

Hourly Weather History & Observations

Time (ChST) Temp. Heat Index Dew Point Humidity Pressure Visibility Wind Dir Wind Speed Gust Speed Precip Events Conditions
12:54 AM 82.0 °F 88.6 °F 75.0 °F 79% 29.97 in 10.0 mi ENE 12.7 mph - N/A   Mostly Cloudy
1:54 AM 82.0 °F 89.4 °F 75.9 °F 82% 29.96 in 10.0 mi ENE 9.2 mph - 0.00 in   Mostly Cloudy
2:54 AM 80.1 °F 84.5 °F 73.9 °F 81% 29.96 in 10.0 mi NE 8.1 mph - N/A   Mostly Cloudy
3:54 AM 80.1 °F 84.5 °F 73.9 °F 81% 29.94 in 10.0 mi NE 5.8 mph - N/A   Mostly Cloudy
4:54 AM 80.1 °F 85.1 °F 75.0 °F 85% 29.95 in 10.0 mi NE 9.2 mph - 0.00 in   Partly Cloudy
5:54 AM 80.1 °F 84.5 °F 73.9 °F 81% 29.96 in 10.0 mi NE 10.4 mph 19.6 mph N/A   Scattered Clouds
6:54 AM 81.0 °F 86.2 °F 73.9 °F 79% 29.97 in 10.0 mi ENE 11.5 mph - N/A   Partly Cloudy
7:54 AM 82.9 °F 90.8 °F 75.9 °F 79% 29.99 in 9.0 mi ENE 15.0 mph 21.9 mph N/A   Mostly Cloudy
8:54 AM 82.9 °F 90.8 °F 75.9 °F 79% 30.00 in 9.0 mi ENE 18.4 mph 26.5 mph 0.00 in Rain Light Rain
9:54 AM 86.0 °F 98.3 °F 78.1 °F 77% 30.00 in 10.0 mi ENE 15.0 mph - 0.03 in   Scattered Clouds
10:54 AM 88.0 °F 100.2 °F 77.0 °F 70% 29.97 in 10.0 mi ENE 19.6 mph 26.5 mph N/A   Scattered Clouds
11:54 AM 88.0 °F 100.2 °F 77.0 °F 70% 29.95 in 10.0 mi ENE 19.6 mph - N/A   Scattered Clouds
12:54 PM 88.0 °F 100.2 °F 77.0 °F 70% 29.93 in 10.0 mi ENE 19.6 mph 24.2 mph N/A   Scattered Clouds
1:54 PM 88.0 °F 98.5 °F 75.9 °F 67% 29.91 in 10.0 mi ENE 18.4 mph 24.2 mph N/A   Scattered Clouds
2:54 PM 88.0 °F 98.5 °F 75.9 °F 67% 29.90 in 10.0 mi ENE 19.6 mph 23.0 mph N/A   Scattered Clouds
3:54 PM 86.0 °F 96.0 °F 75.9 °F 72% 29.90 in 10.0 mi ENE 16.1 mph 21.9 mph N/A   Mostly Cloudy
4:54 PM 84.9 °F 94.1 °F 75.9 °F 74% 29.90 in 10.0 mi NE 15.0 mph - N/A   Partly Cloudy
5:54 PM 84.0 °F 92.6 °F 75.9 °F 76% 29.91 in 10.0 mi NE 13.8 mph - N/A   Scattered Clouds
6:54 PM 82.9 °F 90.8 °F 75.9 °F 79% 29.92 in 10.0 mi NE 16.1 mph 23.0 mph 0.00 in Rain Light Rain
7:03 PM 82.4 °F 89.5 °F 75.2 °F 79% 29.86 in 1.5 mi ENE 16.1 mph 21.9 mph 0.00 in   Haze
7:10 PM 82.4 °F 89.5 °F 75.2 °F 79% 29.86 in 9.0 mi ENE 19.6 mph 24.2 mph 0.00 in   Mostly Cloudy
7:54 PM 82.9 °F 90.2 °F 75.0 °F 77% 29.95 in 9.0 mi NE 18.4 mph - 0.00 in   Partly Cloudy
8:54 PM 82.9 °F 90.8 °F 75.9 °F 79% 29.96 in 10.0 mi NE 16.1 mph 25.3 mph N/A   Mostly Cloudy
9:54 PM 82.9 °F 90.8 °F 75.9 °F 79% 29.96 in 10.0 mi ENE 16.1 mph 21.9 mph N/A   Scattered Clouds
10:54 PM 82.9 °F 90.2 °F 75.0 °F 77% 29.96 in 10.0 mi ENE 16.1 mph 23.0 mph N/A   Partly Cloudy
11:54 PM 82.9 °F 89.4 °F 73.9 °F 74% 29.96 in 10.0 mi NE 16.1 mph - N/A   Scattered Clouds